Flag for India Weather past 2 weeks in Navi Mumbai, Maharashtra, India

Now
79 °F

Partly cloudy.


Feels Like: 82 °F
Forecast: 79 / 90 °F
Wind: 3 mph from Southwest

Location: Bombay / Santacruz

Current Time: Aug 23, 2014 at 3:29:47 AM

Latest Report: Aug 23, 2014 at 2:10 AM


Visibility: 1 mi

Pressure: 29.68 "Hg

Humidity: 89%

Dew point: 75 °F

Location of Navi MumbaiLocation

Historic Weather in Navi Mumbai — Graph

°F

Navi Mumbai temperature yesterday

Maximum temperature yesterday: 84 °F (at 10:40 AM)
Minimum temperature yesterday: 79 °F (at 7:40 PM)
Average temperature yesterday: 81 °F

Past Weeks' High & Low Weather Summary

 TemperatureHumidityPressure
High88 °F (Aug 14, 12:40 PM)100% (Aug 9, 8:40 AM)29.86 "Hg (Aug 9, 8:40 AM)
Low77 °F (Aug 9, 8:40 AM)66% (Aug 17, 12:40 PM)29.62 "Hg (Aug 8, 4:40 PM)
Average83 °F86%29.74 "Hg
* Reported Aug 8 2:40 AM — Aug 23 2:10 AM, Navi Mumbai, Weather by CustomWeather, © 2014

Note: Actual official high and low records may vary slightly from our data, if they occured in-between our weather recording intervals... More about our weather records

Advertising

Navi Mumbai weather history for previous 24 hours

 ConditionsComfort  
Time TempWeatherWind HumidityBarometerVisibility
2:10 AM
Aug 23
79 °FPartly cloudy.3 mph89%29.68 "Hg1 mi
1:40 AM79 °FPartly cloudy.3 mph89%29.71 "Hg1 mi
1:10 AM81 °FPartly cloudy.No wind94%29.71 "Hg1 mi
12:40 AM81 °FMostly cloudy.No wind94%29.71 "Hg1 mi
12:10 AM81 °FMostly cloudy.No wind94%29.74 "Hg1 mi
11:40 PM
Aug 22
81 °FMostly cloudy.3 mph94%29.74 "Hg1 mi
11:10 PM81 °FMostly cloudy.3 mph94%29.74 "Hg1 mi
10:40 PM81 °FMostly cloudy.6 mph94%29.74 "Hg1 mi
10:10 PM81 °FLight rain. Mostly cloudy.5 mph94%29.74 "Hg1 mi
9:40 PM79 °FLight rain. Mostly cloudy.5 mph100%29.74 "Hg1 mi
9:10 PM79 °FLight rain. Mostly cloudy.6 mph94%29.71 "Hg1 mi
8:40 PM81 °FLight rain. Mostly cloudy.5 mph94%29.71 "Hg1 mi
8:10 PM79 °FMostly cloudy.No wind100%29.71 "Hg1 mi
7:40 PM79 °FMostly cloudy.5 mph100%29.68 "Hg1 mi
7:10 PM81 °FMore clouds than sun.3 mph94%29.68 "Hg1 mi
6:40 PM81 °FBroken clouds.5 mph100%29.68 "Hg1 mi
6:10 PM81 °FLight rain. More clouds than sun.No wind100%29.65 "Hg1 mi
5:40 PM81 °FLight rain. More clouds than sun.5 mph94%29.65 "Hg1 mi
5:10 PM81 °FRain. More clouds than sun.No wind94%29.65 "Hg1 mi
4:40 PM81 °FRain. More clouds than sun.6 mph94%29.65 "Hg1 mi
3:40 PM82 °FMore clouds than sun.7 mph89%29.68 "Hg1 mi
3:10 PM82 °FLight rain. More clouds than sun.6 mph89%29.68 "Hg1 mi
2:40 PM84 °FLight rain. More clouds than sun.7 mph84%29.68 "Hg1 mi
2:10 PM82 °FMore clouds than sun.3 mph94%29.68 "Hg2 mi
1:40 PM82 °FMore clouds than sun.6 mph94%29.68 "Hg2 mi
12:40 PM82 °FThunderstorms. Broken clouds.6 mph94%29.71 "Hg1 mi
12:10 PM82 °FBroken clouds.3 mph94%29.71 "Hg1 mi
11:40 AM81 °FRain. More clouds than sun.5 mph100%29.74 "Hg1 mi
11:10 AM82 °FRain. More clouds than sun.7 mph94%29.74 "Hg1 mi
10:40 AM84 °FLight rain. More clouds than sun.9 mph89%29.74 "Hg1 mi
9:10 AM82 °FBroken clouds.3 mph94%29.71 "Hg1 mi
8:40 AM82 °FBroken clouds.No wind94%29.71 "Hg1 mi
8:10 AM82 °FScattered showers. Broken clouds.5 mph94%29.71 "Hg1 mi
7:40 AM81 °FBroken clouds.5 mph100%29.71 "Hg1 mi
7:10 AM81 °FLight rain. Broken clouds.No wind100%29.68 "Hg1 mi
6:40 AM81 °FLight rain. Partly cloudy.3 mph100%29.68 "Hg1 mi
6:10 AM81 °FPartly cloudy.5 mph100%29.68 "Hg1 mi
5:40 AM82 °FPartly cloudy.3 mph89%29.65 "Hg1 mi
5:10 AM82 °FScattered showers. Partly cloudy.No wind89%29.65 "Hg1 mi
4:40 AM82 °FPartly cloudy.5 mph89%29.65 "Hg2 mi
4:10 AM82 °FPartly cloudy.No wind89%29.65 "Hg2 mi
3:10 AM81 °FPartly cloudy.No wind89%29.65 "Hg2 mi
Weather by CustomWeather, © 2014

See weather overviewHow to use our weather pages